This demonstration page uses our WeatherBlox Daily Observations layout. Learn more.

Left ArrowRight Arrow

39.08367, -84.50855

Hourly Observations for May 14, 2022

Temp ( °F °C ) Dew Point ( °F °C ) Humidity (%) Winds ( mph kmh ) Pressure ( in mb ) Visibility ( mi km ) Precip ( " mm )
12:53 am 00:53 Clear 64 17.8 63 17.2 96 96 Calm 29.96 1015 10 16 0.00 0.00
1:53 am 01:53 Clear 62 16.7 62 16.7 100 100 Calm 29.96 1015 10 16 0.00 0.00
2:53 am 02:53 Clear 61 16.1 61 16.1 100 100 Calm 29.96 1015 10 16 0.00 0.00
3:53 am 03:53 Clear 59 15 59 15 100 100 Calm 29.96 1015 10 16 0.00 0.00
4:53 am 04:53 Clear 59 15 59 15 100 100 Calm 29.96 1015 9 14 0.00 0.00
5:14 am 05:14 Clear with Mist and Fog 59 15 59 15 100 100 S 3 6 29.97 1015 2 2 0.00 0.00
5:25 am 05:25 Mostly Clear with Mist and Fog 59 15 59 15 100 100 Calm 29.97 1015 4 6 0.00 0.00
5:53 am 05:53 Mostly Clear 59 15 59 15 100 100 Calm 29.96 1015 7 11 0.00 0.00
6:43 am 06:43 Sunny with Mist and Fog 59 15 59 15 100 100 Calm 29.97 1015 2 3 0.00 0.00
6:53 am 06:53 Sunny 58 14.4 58 14.4 100 100 Calm 29.96 1015 8 13 0.00 0.00
7:53 am 07:53 Sunny 62 16.7 61 16.1 96 96 Calm 29.96 1015 9 14 0.00 0.00
8:53 am 08:53 Sunny 67 19.4 63 17.2 87 87 Calm 29.96 1015 10 16 0.00 0.00
9:53 am 09:53 Sunny 73 22.8 64 17.8 74 74 SSW 3 6 29.95 1014 10 16 0.00 0.00
10:53 am 10:53 Sunny 77 25 65 18.3 66 66 SW 5 7 29.95 1014 10 16 0.00 0.00
11:53 am 11:53 Mostly Sunny 80 26.7 67 19.4 64 64 Calm 29.94 1014 10 16 0.00 0.00
12:53 pm 12:53 Partly Cloudy 83 28.3 62 16.7 49 49 W 3 6 29.93 1013 10 16 0.00 0.00
1:00 pm 13:00 Sunny with Nearby Thunderstorms 82 27.8 62 16.7 51 51 S 3 6 29.90 1013 10 16 0.00 0.00
1:19 pm 13:19 Mostly Sunny 82 27.8 66 18.9 58 58 SW 10 17 29.90 1013 10 16 0.00 0.00
1:53 pm 13:53 Partly Cloudy 82 27.8 67 19.4 60 60 SSW 7 11 29.91 1013 10 16 0.00 0.00
2:03 pm 14:03 Sunny with Nearby Thunderstorms 82 27.8 65 18.3 56 56 S 6 9 29.89 1012 10 16 0.00 0.00
2:40 pm 14:40 Partly Cloudy 79 26.1 65 18.3 62 62 SW 8 13 29.89 1012 10 16 0.00 0.00
2:53 pm 14:53 Partly Cloudy 79 26.1 64 17.8 60 60 SSW 3 6 29.89 1012 10 16 0.00 0.00
3:53 pm 15:53 Partly Cloudy 82 27.8 65 18.3 56 56 SSW 7 11 29.86 1011 10 16 0.00 0.00
4:53 pm 16:53 Partly Cloudy 80 26.7 67 19.4 64 64 S 10 17 29.85 1011 10 16 0.00 0.00
5:53 pm 17:53 Sunny 80 26.7 67 19.4 64 64 S 7 11 29.84 1011 10 16 0.00 0.00
6:53 pm 18:53 Sunny 76 24.4 63 17.2 64 64 SW 12 19 29.87 1012 10 16 0.00 0.00
7:18 pm 19:18 Mostly Cloudy with Thunderstorms 76 24.4 64 17.8 67 67 W 16 26 29.89 1012 7 11 0.00 0.00
7:34 pm 19:34 Mostly Cloudy with Thunderstorms 70 21.1 60 15.6 71 71 N 15 24 29.94 1014 7 11 0.00 0.00
7:53 pm 19:53 Mostly Cloudy with Thunderstorms 67 19.4 61 16.1 81 81 NNW 13 20 29.94 1014 7 11 0.00 0.00
8:53 pm 20:53 Cloudy with Light Rain 66 18.9 63 17.2 90 90 VRB 6 9 29.93 1014 3 5 0.06 1.52
9:53 pm 21:53 Mostly Clear 65 18.3 64 17.8 97 97 NE 7 11 29.93 1013 10 16 0.04 1.02
10:53 pm 22:53 Clear 65 18.3 63 17.2 93 93 NNW 3 6 29.93 1014 10 16 0.00 0.00
11:53 pm 23:53 Clear with Mist and Fog 63 17.2 63 17.2 100 100 Calm 29.94 1014 3 5 0.00 0.00
11:56 pm 23:56 Clear with Mist and Fog 62 16.7 62 16.7 100 100 Calm 29.94 1014 2 3 0.00 0.00

Powered by AerisWeather